Location: ?????????
(54.7630°N, 39.4991°E)
Time: 11:07:56
(UTC+00:00)

Meteor 2-3 Rocket - Pass Details

Date: 14 April 2026
Orbit: 845 x 880 km, 81.2° (Epoch: 10 May)

Event Time Altitude Azimuth Distance (km) Brightness Sun altitude
Rises 19:46:50 0° 348° (NNW) 3,438 8.2 -22.6°
Reaches altitude 10° 19:49:26 10° 355° (N) 2,493 7.1 -22.7°
Maximum altitude 19:54:46 42° 66° (ENE) 1,207 4.4 -23.0°
Enters shadow 19:56:12 35° 101° (E) 1,340 4.4 -23.1°
